Regional Weather Roundup
Issued by NWS

Home | Current Version | Previous Version | Text Only | Print | Product List | Glossary Off
Versions: 1 2 3 4 5 6 7 8 9 10 11 12 13 14 15 16 17 18 19 20 21 22 23 24 25 26 27 28 29 30 31 32 33 34 35 36 37 38 39 40 41 42 43 44 45 46 47 48 49 50

000
ASUS45 KSLC 262310
RWRUT

UTAH REGIONAL WEATHER ROUNDUP
NATIONAL WEATHER SERVICE SALT LAKE CITY UT
500 PM MDT TUE AUG 26 2014

UTZ001>011-023>025-270000-

NORTHERN UTAH

CITY           SKY/WX    TMP DP  RH WIND       PRES   REMARKS
HILL AFB       PTSUNNY   73  48  40 E12       30.10F
LOGAN          MOSUNNY   79  49  34 NW7       30.09F
OGDEN          PTSUNNY   77  47  34 SE9       30.07F
PROVO AIRPORT  PTSUNNY   73  57  56 SW5       30.09F
SALT LAKE CITY CLOUDY    77  40  26 E6        30.06F
VERNAL         CLOUDY    72  52  49 SW3       30.17S
WENDOVER       CLOUDY    75  43  31 SW17      30.09S
HEBER CITY     CLOUDY    72  43  35 SE9       30.16S
WEST JORDAN    SUNNY     75  46  35 N10       30.09F

$$

UTZ012>022-026-027-270000-

SOUTHERN UTAH

CITY           SKY/WX    TMP DP  RH WIND       PRES   REMARKS
BRYCE CANYON   PTSUNNY   59  40  49 E3        30.31F
CEDAR CITY     RAIN      65  48  54 S22G30    30.15R
MILFORD        CLOUDY    73  46  38 SW7       30.08S
MOAB/CYNLANDS  LGT RAIN  72  48  42 W30G45    30.12R
PRICE          CLOUDY    66  44  45 NW5       30.24R
ST GEORGE      CLOUDY    88  50  27 N16       29.96F
KANAB            N/A     73  52  46 E5        30.18F

$$

REGIONAL REPORTS     COLORADO/ARIZONA

CITY           SKY/WX    TMP DP  RH WIND       PRES   REMARKS
CRAIG, CO      CLOUDY    70  46  42 SE9       30.26F
GRAND JUNCTION PTSUNNY   78  48  34 E9        30.13F
RIFLE          CLOUDY    66  53  63 E5        30.21F
MONTROSE       CLOUDY    71  50  47 S16       30.24R
CORTEZ         LGT RAIN  71  52  50 S14       30.20R
PAGE, AZ       LGT RAIN  68  56  65 E5        30.17S
GRAND CANYON   CLOUDY    61  50  67 S9        30.30S
KINGMAN        PTSUNNY   82  54  37 S9        30.05F
FLAGSTAFF      TSTM      53  49  86 W10G22    30.38R FOG

$$

REGIONAL REPORTS    NEVADA/IDAHO/WYOMING

CITY           SKY/WX    TMP DP  RH WIND       PRES   REMARKS
LAS VEGAS, NV  MOSUNNY   95  24   8 SW21G29   29.85F
ELY            CLOUDY    58  44  60 NW10      30.25S
ELKO           LGT RAIN  69  50  50 E12G17    30.12R
POCATELLO, ID  MOSUNNY   78  42  27 NW7       30.13F
BURLEY         MOSUNNY   77  45  32 N6        30.09F
EVANSTON, WY   CLOUDY    58  45  62 SE7       30.31R
ROCK SPRINGS   CLOUDY    70  31  23 CALM      30.24S

$$


USA.gov is the U.S. government's official web portal to all federal, state and local government web resources and services.